SL-14 DEB, 45350

Orbit data source: Space-Track

SL-14 DEB, 45350 is space debris in LEO originally from a launch on Thu, 15 Aug 1991 UTC launched from the Plesetsk Missile And Space Complex (PKMTR). Debris objects in space refer to the collection of defunct objects orbiting the Earth. Examples of debris include non-operational satellites, rocket bodies, and fragments generated from explosions, collisions, or faulty payload assembly.

Loading next visibility...
Identifier
45350, 1991-056CJ
Orbit
LEO
Country
Flag of CISCIS
Related business
Manufacturer
Unknown
Mission
Spacecraft
Bus & Motor
Unknown
Mass
Unknown
Launch date (UTC)
1991-08-15 (34 years ago)
Launch vehicle
Unknown
Launch site
Plesetsk Missile And Space Complex (PKMTR)
Object type
Payload
Rocket body
Debris
Shape & HBR
Unknown shape, 0.1 m
Radar Cross Section
Small (<0.1 m²)

Expand to show TLE details & history
Last TLE update: 5 days ago

TLE from 5 days ago
0 SL-14 DEB
1 45350U 91056CJ  26031.51158220  .00000623  00000-0  14629-2 0  9999
2 45350  82.5853 232.2371 0037306 289.1512  70.5576 13.22330378287758
Epoch: 2026-01-31T12:16Z
TLE epoch observation values (Epoch: 2026-01-31T12:16:40.702Z)
Latitude
-0.00007°
Longitude
-82.66702°
Altitude
1,169.359 km
Speed
7.273 km/s
True Right ascension
15h 28m 56s
True Declination
0° 00' 00"
Sunlit
Object was in daylight at epoch
Visualization orbit readout
Latitude
Unknown
Longitude
Unknown
Altitude
Unknown
Speed
Unknown
Apparent Right ascension
Unknown
Apparent Declination
Unknown
Sunlit
N/A
Visualization observer readout
Local Sidereal Time
03:54:48
Azimuth
Unknown
Elevation
Unknown
Doppler factor
Unknown
Orbital elements
Apogee altitude
1,201.238 km
Perigee altitude
1,144.897 km
Semi-major axis
7,551.205 km
Eccentricity
0.00373
Inclination
82.5853°
RAAN
232.2371°
Arg. of periapsis
289.1512°
True anomaly
70.96134°
Mean anomaly
70.5576°
Eccentric anomaly
70.75941°
Mean motion
3.30764 °/min
Orbital period
108.84 mins
BSTAR
0.0014629
Loading maneuver chart data...
Computing Atmospheric mass density...
Loading historical data...
Loading historical data...
Loading historical data...
Loading historical data...
Loading historical data...
Loading historical data...
Loading historical data...

Documentation

Showing up to 5 results
|